Location: ??
(35.5052°N, 139.7262°E)
Time: 03:21:32
(UTC+00:00)

Gbstr 26 Del rocket - Pass Details

Date: 20 June 2021
Orbit: 492 x 1264 km, 51.8° (Epoch: 26 July)

Event Time Altitude Azimuth Distance (km) Brightness Sun altitude
Exits shadow 18:14:28 17° 206° (SSW) 1,609 4.6 -12.7°
Maximum altitude 18:17:53 56° 132° (SE) 831 3.7 -12.1°
Drops below altitude 10° 18:23:18 10° 55° (NE) 2,419 7.7 -11.3°
Sets 18:26:07 0° 51° (NE) 3,496 9.2 -10.9°
